SKW4655 KACV-KSFO

Flight info

Callsign SKW4655
Flight time 0h 53m
Altitude 29000
Route HOCUT5 FOT AMAKR BDEGA4
Aircraft CRJ7/M-SDFGIRWY/S

Departure

Time 2026-04-21 13:29
Airport California Redwood Coast-Humboldt County Airport (KACV)

Arrival

Time 2026-04-21 14:23
Airport San Francisco International Airport (KSFO)
Time Latitude Longitude Altitude Speed Heading
2026-04-21 12:33 40.97130 -124.10613 223 ft 0 kts 246°
2026-04-21 12:33 40.97130 -124.10612 223 ft 0 kts 246°
2026-04-21 12:41 40.97130 -124.10611 223 ft 0 kts 246°
2026-04-21 12:49 40.97130 -124.10610 223 ft 0 kts 246°
2026-04-21 12:55 40.97131 -124.10610 223 ft 0 kts 246°
2026-04-21 12:56 40.97131 -124.10609 223 ft 0 kts 246°
2026-04-21 13:03 40.97131 -124.10608 232 ft 0 kts 246°
2026-04-21 13:10 40.97131 -124.10607 223 ft 0 kts 246°
2026-04-21 13:16 40.97132 -124.10607 223 ft 0 kts 246°
2026-04-21 13:17 40.97137 -124.10591 223 ft 3 kts 246°
2026-04-21 13:17 40.97142 -124.10577 223 ft 0 kts 246°
2026-04-21 13:18 40.97142 -124.10576 223 ft 0 kts 246°
2026-04-21 13:24 40.97142 -124.10577 223 ft 1 kts 246°
2026-04-21 13:25 40.97136 -124.10584 223 ft 1 kts 203°
2026-04-21 13:25 40.97126 -124.10581 224 ft 3 kts 144°
2026-04-21 13:25 40.97106 -124.10548 225 ft 7 kts 138°
2026-04-21 13:25 40.97079 -124.10514 226 ft 4 kts 134°
2026-04-21 13:26 40.97072 -124.10479 228 ft 6 kts 103°
2026-04-21 13:26 40.97042 -124.10427 229 ft 2 kts 126°
2026-04-21 13:26 40.97042 -124.10426 229 ft 0 kts 125°
2026-04-21 13:28 40.97036 -124.10406 229 ft 7 kts 97°
2026-04-21 13:28 40.97062 -124.10341 230 ft 9 kts 23°
2026-04-21 13:28 40.97101 -124.10348 229 ft 7 kts 334°
2026-04-21 13:28 40.97393 -124.10546 219 ft 88 kts 333°
2026-04-21 13:29 40.98160 -124.11064 204 ft 155 kts 333°
2026-04-21 13:29 40.99168 -124.11742 735 ft 164 kts 331°
2026-04-21 13:29 41.00123 -124.12778 1121 ft 202 kts 312°
2026-04-21 13:29 41.00855 -124.14509 1527 ft 222 kts 276°
2026-04-21 13:30 41.00535 -124.16394 2660 ft 210 kts 234°
2026-04-21 13:30 40.99626 -124.17906 3524 ft 211 kts 230°
2026-04-21 13:30 40.98803 -124.19525 4342 ft 214 kts 238°
2026-04-21 13:30 40.98163 -124.21334 5126 ft 219 kts 246°
2026-04-21 13:31 40.97726 -124.23280 5905 ft 223 kts 257°
2026-04-21 13:31 40.97500 -124.25319 6650 ft 226 kts 262°
2026-04-21 13:31 40.97399 -124.27410 7383 ft 228 kts 265°
2026-04-21 13:31 40.97349 -124.29519 8114 ft 230 kts 264°
2026-04-21 13:32 40.96930 -124.31509 8777 ft 225 kts 229°
2026-04-21 13:32 40.95672 -124.32610 9460 ft 220 kts 191°
2026-04-21 13:32 40.94147 -124.32853 10135 ft 221 kts 181°
2026-04-21 13:32 40.92614 -124.32635 10781 ft 222 kts 168°
2026-04-21 13:33 40.91114 -124.32107 11425 ft 224 kts 165°
2026-04-21 13:33 40.89620 -124.31505 12052 ft 225 kts 164°
2026-04-21 13:33 40.88116 -124.30892 12684 ft 226 kts 165°
2026-04-21 13:33 40.86623 -124.30307 13294 ft 227 kts 166°
2026-04-21 13:34 40.85068 -124.29745 13714 ft 238 kts 167°
2026-04-21 13:34 40.83409 -124.29157 13890 ft 256 kts 166°
2026-04-21 13:34 40.81610 -124.28530 13969 ft 279 kts 167°
2026-04-21 13:34 40.79652 -124.27859 14013 ft 302 kts 167°
2026-04-21 13:35 40.77556 -124.27135 14278 ft 313 kts 166°
2026-04-21 13:35 40.75451 -124.26395 14977 ft 313 kts 166°
2026-04-21 13:35 40.73341 -124.25645 15573 ft 315 kts 166°
2026-04-21 13:35 40.71213 -124.24890 16166 ft 317 kts 166°
2026-04-21 13:36 40.69104 -124.24143 16736 ft 319 kts 166°
2026-04-21 13:36 40.66952 -124.23398 17292 ft 321 kts 167°
2026-04-21 13:36 40.64774 -124.22703 17857 ft 323 kts 168°
2026-04-21 13:36 40.62576 -124.22048 18368 ft 325 kts 168°
2026-04-21 13:37 40.60364 -124.21389 18850 ft 326 kts 168°
2026-04-21 13:37 40.58145 -124.20727 19332 ft 327 kts 168°
2026-04-21 13:37 40.55920 -124.20062 19806 ft 329 kts 168°
2026-04-21 13:37 40.53684 -124.19390 20261 ft 330 kts 168°
2026-04-21 13:38 40.51435 -124.18713 20704 ft 332 kts 168°
2026-04-21 13:38 40.49178 -124.18034 21125 ft 333 kts 168°
2026-04-21 13:38 40.46911 -124.17351 21557 ft 335 kts 168°
2026-04-21 13:38 40.44638 -124.16662 21964 ft 336 kts 167°
2026-04-21 13:39 40.42386 -124.15980 22366 ft 338 kts 167°
2026-04-21 13:39 40.40089 -124.15285 22749 ft 339 kts 167°
2026-04-21 13:39 40.37781 -124.14585 23135 ft 340 kts 167°
2026-04-21 13:39 40.35468 -124.13879 23504 ft 342 kts 167°
2026-04-21 13:40 40.33142 -124.13165 23818 ft 343 kts 167°
2026-04-21 13:40 40.30813 -124.12451 24147 ft 344 kts 167°
2026-04-21 13:40 40.28471 -124.11732 24448 ft 345 kts 167°
2026-04-21 13:40 40.26129 -124.11011 24773 ft 346 kts 168°
2026-04-21 13:41 40.23819 -124.10299 25088 ft 347 kts 168°
2026-04-21 13:41 40.21456 -124.09569 25387 ft 348 kts 168°
2026-04-21 13:41 40.19101 -124.08839 25691 ft 348 kts 168°
2026-04-21 13:41 40.16739 -124.08105 25994 ft 349 kts 168°
2026-04-21 13:42 40.14376 -124.07368 26271 ft 350 kts 168°
2026-04-21 13:42 40.12002 -124.06630 26551 ft 351 kts 168°
2026-04-21 13:42 40.09618 -124.05884 26835 ft 352 kts 168°
2026-04-21 13:42 40.07233 -124.05137 27108 ft 353 kts 168°
2026-04-21 13:43 40.04864 -124.04393 27397 ft 354 kts 168°
2026-04-21 13:43 40.02469 -124.03640 27679 ft 354 kts 168°
2026-04-21 13:43 40.00065 -124.02882 27954 ft 356 kts 168°
2026-04-21 13:43 39.97658 -124.02121 28211 ft 357 kts 168°
2026-04-21 13:44 39.95239 -124.01354 28458 ft 358 kts 168°
2026-04-21 13:44 39.92813 -124.00586 28706 ft 359 kts 168°
2026-04-21 13:44 39.90379 -123.99812 28831 ft 363 kts 168°
2026-04-21 13:44 39.87903 -123.99026 28887 ft 368 kts 168°
2026-04-21 13:45 39.82884 -123.97429 28915 ft 373 kts 168°
2026-04-21 13:45 39.77849 -123.95823 28919 ft 376 kts 168°
2026-04-21 13:46 39.72735 -123.94186 28918 ft 379 kts 168°
2026-04-21 13:46 39.67590 -123.92534 28919 ft 382 kts 168°
2026-04-21 13:47 39.62434 -123.90873 28916 ft 381 kts 168°
2026-04-21 13:47 39.57328 -123.89221 28912 ft 380 kts 168°
2026-04-21 13:48 39.52191 -123.87552 28915 ft 380 kts 168°
2026-04-21 13:48 39.47068 -123.85880 28914 ft 379 kts 168°
2026-04-21 13:49 39.41953 -123.84204 28914 ft 379 kts 168°
2026-04-21 13:49 39.36846 -123.82523 28915 ft 378 kts 168°
2026-04-21 13:50 39.31775 -123.80848 28919 ft 378 kts 168°
2026-04-21 13:50 39.26687 -123.79158 28920 ft 377 kts 168°
2026-04-21 13:51 39.21598 -123.77462 28921 ft 377 kts 168°
2026-04-21 13:51 39.16508 -123.75762 28923 ft 377 kts 168°
2026-04-21 13:52 39.11422 -123.74054 28918 ft 377 kts 168°
2026-04-21 13:52 39.06336 -123.72340 28917 ft 377 kts 168°
2026-04-21 13:53 39.01286 -123.70630 28924 ft 377 kts 168°
2026-04-21 13:53 38.96265 -123.68627 28925 ft 381 kts 159°
2026-04-21 13:54 38.91601 -123.65322 28034 ft 386 kts 149°
2026-04-21 13:54 38.89616 -123.62953 27367 ft 392 kts 139°
2026-04-21 13:54 38.87798 -123.60339 26790 ft 391 kts 137°
2026-04-21 13:55 38.86033 -123.57696 26217 ft 388 kts 136°
2026-04-21 13:55 38.84882 -123.55950 25963 ft 384 kts 136°
2026-04-21 13:55 38.82645 -123.52520 25568 ft 374 kts 136°
2026-04-21 13:55 38.80981 -123.49962 25104 ft 372 kts 136°
2026-04-21 13:56 38.79862 -123.48247 24797 ft 371 kts 136°
2026-04-21 13:56 38.78223 -123.45749 24475 ft 369 kts 136°
2026-04-21 13:56 38.76000 -123.42390 24226 ft 368 kts 136°
2026-04-21 13:56 38.74906 -123.40745 24207 ft 365 kts 136°
2026-04-21 13:57 38.73266 -123.38275 24241 ft 360 kts 136°
2026-04-21 13:57 38.71649 -123.35833 24114 ft 362 kts 136°
2026-04-21 13:57 38.70005 -123.33360 24027 ft 367 kts 136°
2026-04-21 13:57 38.68344 -123.30867 23984 ft 367 kts 136°
2026-04-21 13:58 38.66697 -123.28388 23963 ft 364 kts 136°
2026-04-21 13:58 38.65066 -123.25925 23946 ft 361 kts 136°
2026-04-21 13:58 38.63452 -123.23481 23937 ft 357 kts 136°
2026-04-21 13:58 38.61847 -123.21049 23933 ft 358 kts 136°
2026-04-21 13:59 38.60228 -123.18685 23939 ft 358 kts 137°
2026-04-21 13:59 38.58566 -123.16306 23943 ft 360 kts 138°
2026-04-21 13:59 38.56892 -123.13928 23941 ft 361 kts 138°
2026-04-21 13:59 38.55206 -123.11533 23962 ft 362 kts 138°
2026-04-21 14:00 38.53517 -123.09142 23952 ft 364 kts 138°
2026-04-21 14:00 38.51818 -123.06741 23473 ft 364 kts 138°
2026-04-21 14:00 38.50117 -123.04349 22977 ft 362 kts 138°
2026-04-21 14:00 38.48430 -123.01976 22557 ft 360 kts 138°
2026-04-21 14:01 38.46752 -122.99611 22153 ft 358 kts 138°
2026-04-21 14:01 38.45083 -122.97262 21768 ft 355 kts 138°
2026-04-21 14:01 38.43426 -122.94929 21370 ft 354 kts 138°
2026-04-21 14:01 38.41776 -122.92607 20985 ft 352 kts 138°
2026-04-21 14:02 38.40155 -122.90328 20609 ft 350 kts 138°
2026-04-21 14:02 38.38503 -122.88059 20231 ft 347 kts 142°
2026-04-21 14:02 38.36602 -122.86223 19864 ft 340 kts 150°
2026-04-21 14:03 38.32622 -122.83006 19024 ft 337 kts 152°
2026-04-21 14:03 38.30614 -122.81458 18546 ft 336 kts 153°
2026-04-21 14:03 38.28608 -122.79936 18051 ft 335 kts 153°
2026-04-21 14:03 38.26607 -122.78430 17564 ft 333 kts 153°
2026-04-21 14:04 38.24608 -122.76964 17091 ft 330 kts 156°
2026-04-21 14:04 38.22533 -122.75854 16624 ft 326 kts 162°
2026-04-21 14:04 38.20406 -122.74873 16111 ft 324 kts 163°
2026-04-21 14:04 38.18281 -122.73938 15516 ft 322 kts 164°
2026-04-21 14:05 38.16163 -122.73020 14977 ft 320 kts 164°
2026-04-21 14:05 38.14061 -122.72118 14464 ft 317 kts 164°
2026-04-21 14:05 38.11981 -122.71280 14211 ft 307 kts 167°
2026-04-21 14:05 38.09926 -122.70587 14100 ft 306 kts 168°
2026-04-21 14:06 38.07854 -122.69936 14048 ft 307 kts 169°
2026-04-21 14:06 38.05779 -122.69305 14025 ft 307 kts 169°
2026-04-21 14:06 38.03688 -122.68677 14005 ft 313 kts 169°
2026-04-21 14:06 38.01540 -122.68034 14013 ft 322 kts 169°
2026-04-21 14:07 37.99335 -122.67379 14010 ft 325 kts 169°
2026-04-21 14:07 37.97158 -122.66733 14007 ft 318 kts 169°
2026-04-21 14:07 37.95022 -122.66095 14025 ft 313 kts 169°
2026-04-21 14:07 37.92920 -122.65465 14011 ft 308 kts 169°
2026-04-21 14:08 37.90836 -122.64937 14017 ft 304 kts 172°
2026-04-21 14:08 37.88760 -122.64504 13691 ft 303 kts 172°
2026-04-21 14:08 37.86727 -122.63941 13291 ft 300 kts 168°
2026-04-21 14:08 37.84753 -122.63218 13111 ft 292 kts 160°
2026-04-21 14:09 37.83104 -122.61734 13044 ft 295 kts 142°
2026-04-21 14:09 37.81607 -122.59900 13015 ft 302 kts 140°
2026-04-21 14:09 37.80173 -122.58043 12836 ft 293 kts 139°
2026-04-21 14:09 37.78758 -122.56162 12370 ft 295 kts 138°
2026-04-21 14:10 37.77355 -122.54269 11963 ft 293 kts 138°
2026-04-21 14:10 37.75962 -122.52376 11572 ft 292 kts 138°
2026-04-21 14:10 37.74603 -122.50520 11202 ft 291 kts 138°
2026-04-21 14:10 37.73224 -122.48646 10837 ft 289 kts 140°
2026-04-21 14:11 37.71681 -122.47074 10447 ft 283 kts 149°
2026-04-21 14:11 37.70057 -122.45660 10055 ft 282 kts 150°
2026-04-21 14:11 37.68429 -122.44297 9701 ft 279 kts 151°
2026-04-21 14:11 37.66806 -122.42958 9287 ft 278 kts 152°
2026-04-21 14:12 37.65186 -122.41635 8841 ft 278 kts 152°
2026-04-21 14:12 37.63581 -122.40345 8443 ft 276 kts 152°
2026-04-21 14:12 37.61962 -122.39055 7991 ft 275 kts 152°
2026-04-21 14:12 37.60343 -122.37770 7557 ft 274 kts 152°
2026-04-21 14:13 37.58733 -122.36498 7132 ft 272 kts 152°
2026-04-21 14:13 37.57123 -122.35234 6676 ft 272 kts 152°
2026-04-21 14:13 37.55515 -122.33979 6205 ft 271 kts 152°
2026-04-21 14:13 37.53919 -122.32740 5754 ft 268 kts 152°
2026-04-21 14:14 37.52355 -122.31529 5483 ft 261 kts 152°
2026-04-21 14:14 37.50863 -122.30281 5262 ft 261 kts 146°
2026-04-21 14:14 37.49472 -122.28829 5086 ft 256 kts 141°
2026-04-21 14:14 37.48207 -122.27299 4960 ft 247 kts 139°
2026-04-21 14:15 37.46994 -122.25733 4986 ft 257 kts 138°
2026-04-21 14:15 37.45850 -122.23964 5003 ft 260 kts 128°
2026-04-21 14:15 37.44889 -122.22069 4917 ft 256 kts 126°
2026-04-21 14:15 37.44027 -122.20099 4693 ft 260 kts 114°
2026-04-21 14:16 37.43572 -122.17877 4472 ft 264 kts 100°
2026-04-21 14:16 37.43554 -122.15578 4396 ft 259 kts 92°
2026-04-21 14:16 37.43635 -122.13349 4372 ft 252 kts 89°
2026-04-21 14:16 37.44151 -122.11273 4327 ft 251 kts 59°
2026-04-21 14:17 37.45418 -122.09779 4156 ft 252 kts 27°
2026-04-21 14:17 37.47097 -122.09264 3980 ft 248 kts 354°
2026-04-21 14:17 37.48709 -122.09839 3785 ft 241 kts 324°
2026-04-21 14:17 37.50033 -122.11055 3600 ft 237 kts 314°
2026-04-21 14:18 37.51140 -122.12574 3238 ft 236 kts 304°
2026-04-21 14:18 37.52215 -122.14167 2722 ft 240 kts 307°
2026-04-21 14:18 37.53253 -122.15826 2175 ft 245 kts 299°
2026-04-21 14:18 37.53984 -122.17706 2050 ft 230 kts 288°
2026-04-21 14:19 37.54545 -122.19569 1701 ft 221 kts 288°
2026-04-21 14:19 37.55207 -122.21324 1119 ft 222 kts 297°
2026-04-21 14:19 37.55961 -122.22966 819 ft 209 kts 298°
2026-04-21 14:19 37.56660 -122.24517 664 ft 197 kts 298°
2026-04-21 14:20 37.57213 -122.25944 648 ft 166 kts 292°
2026-04-21 14:20 37.57715 -122.27237 579 ft 158 kts 297°
2026-04-21 14:20 37.58234 -122.28420 456 ft 150 kts 299°
2026-04-21 14:20 37.58770 -122.29581 434 ft 162 kts 297°
2026-04-21 14:21 37.59284 -122.30825 464 ft 157 kts 295°
2026-04-21 14:21 37.59818 -122.32028 384 ft 158 kts 296°
2026-04-21 14:21 37.60328 -122.33274 326 ft 159 kts 295°
2026-04-21 14:21 37.60828 -122.34451 216 ft 155 kts 295°
2026-04-21 14:22 37.61303 -122.35577 98 ft 143 kts 294°
2026-04-21 14:22 37.61732 -122.36618 18 ft 116 kts 300°
2026-04-21 14:22 37.62055 -122.37391 16 ft 78 kts 298°
2026-04-21 14:22 37.62277 -122.37917 19 ft 61 kts 298°
2026-04-21 14:23 37.62327 -122.38198 22 ft 20 kts 244°
2026-04-21 14:23 37.62297 -122.38244 21 ft 0 kts 220°
2026-04-21 14:25 37.62282 -122.38258 21 ft 8 kts 209°
2026-04-21 14:25 37.62203 -122.38294 19 ft 18 kts 197°
2026-04-21 14:25 37.62104 -122.38332 19 ft 13 kts 196°
2026-04-21 14:25 37.62058 -122.38419 18 ft 16 kts 290°
2026-04-21 14:26 37.62112 -122.38552 18 ft 14 kts 298°
2026-04-21 14:26 37.62157 -122.38656 14 ft 17 kts 297°
2026-04-21 14:26 37.62220 -122.38806 10 ft 15 kts 298°
2026-04-21 14:26 37.62263 -122.38926 11 ft 10 kts 277°
2026-04-21 14:27 37.62245 -122.39010 12 ft 7 kts 225°
2026-04-21 14:27 37.62217 -122.39007 12 ft 6 kts 150°
2026-04-21 14:27 37.62173 -122.38987 11 ft 2 kts 188°
2026-04-21 14:27 37.62152 -122.38999 12 ft 3 kts 206°